TimeMST,TemperatureF,Dew PointF,Humidity,Sea Level PressureIn,VisibilityMPH,Wind Direction,Wind SpeedMPH,Gust SpeedMPH,PrecipitationIn,Events,Conditions,WindDirDegrees,DateUTC
12:15 AM,53.6,26.6,35,30.18,10.0,Calm,Calm,-,N/A,,Clear,0,2012-11-07 07:15:00
12:35 AM,55.4,26.6,33,30.18,10.0,SSE,3.5,-,N/A,,Clear,150,2012-11-07 07:35:00
12:55 AM,55.4,26.6,33,30.17,10.0,South,3.5,-,N/A,,Clear,190,2012-11-07 07:55:00
1:15 AM,53.6,24.8,33,30.17,10.0,SSE,3.5,-,N/A,,Clear,150,2012-11-07 08:15:00
2:15 AM,51.8,28.4,41,30.18,10.0,Calm,Calm,-,N/A,,Clear,0,2012-11-07 09:15:00
4:15 AM,51.8,23.0,33,30.17,10.0,SE,3.5,-,N/A,,Clear,140,2012-11-07 11:15:00
4:35 AM,51.8,24.8,35,30.17,10.0,Calm,Calm,-,N/A,,Clear,0,2012-11-07 11:35:00
4:55 AM,48.2,24.8,40,30.17,10.0,Calm,Calm,-,N/A,,Clear,0,2012-11-07 11:55:00
5:15 AM,48.2,24.8,40,30.17,10.0,Calm,Calm,-,N/A,,Clear,0,2012-11-07 12:15:00
5:55 AM,46.4,24.8,43,30.17,10.0,Calm,Calm,-,N/A,,Clear,0,2012-11-07 12:55:00
6:15 AM,46.4,24.8,43,30.17,10.0,Calm,Calm,-,N/A,,Clear,0,2012-11-07 13:15:00
6:55 AM,46.4,24.8,43,30.17,10.0,Calm,Calm,-,N/A,,Clear,0,2012-11-07 13:55:00
7:15 AM,46.4,24.8,43,30.18,10.0,South,4.6,-,N/A,,Clear,190,2012-11-07 14:15:00
7:35 AM,46.4,24.8,43,30.18,10.0,SSW,3.5,-,N/A,,Clear,210,2012-11-07 14:35:00
8:15 AM,48.2,26.6,43,30.19,10.0,Calm,Calm,-,N/A,,Clear,0,2012-11-07 15:15:00
8:35 AM,48.2,28.4,46,30.19,10.0,Calm,Calm,-,N/A,,Clear,0,2012-11-07 15:35:00
8:55 AM,51.8,28.4,41,30.19,10.0,Calm,Calm,-,N/A,,Clear,0,2012-11-07 15:55:00
9:15 AM,53.6,26.6,35,30.19,10.0,Calm,Calm,-,N/A,,Clear,0,2012-11-07 16:15:00
9:35 AM,53.6,26.6,35,30.19,10.0,Calm,Calm,-,N/A,,Clear,0,2012-11-07 16:35:00
9:55 AM,55.4,26.6,33,30.18,10.0,Calm,Calm,-,N/A,,Clear,0,2012-11-07 16:55:00
10:15 AM,55.4,26.6,33,30.18,10.0,Calm,Calm,-,N/A,,Clear,0,2012-11-07 17:15:00
10:35 AM,57.2,26.6,31,30.17,10.0,Calm,Calm,-,N/A,,Clear,0,2012-11-07 17:35:00
11:15 AM,62.6,26.6,26,30.15,10.0,Calm,Calm,-,N/A,,Clear,0,2012-11-07 18:15:00
12:15 PM,64.4,26.6,24,30.11,10.0,Calm,Calm,-,N/A,,Clear,0,2012-11-07 19:15:00
12:35 PM,66.2,26.6,23,30.10,10.0,Calm,Calm,-,N/A,,Clear,0,2012-11-07 19:35:00
12:55 PM,66.2,26.6,23,30.08,10.0,Calm,Calm,-,N/A,,Clear,0,2012-11-07 19:55:00
1:35 PM,71.6,28.4,20,30.06,10.0,SSW,3.5,-,N/A,,Clear,200,2012-11-07 20:35:00
1:55 PM,71.6,28.4,20,30.05,4.0,Calm,Calm,-,N/A,,Clear,0,2012-11-07 20:55:00
2:15 PM,71.6,28.4,20,30.04,10.0,Calm,Calm,-,N/A,,Clear,0,2012-11-07 21:15:00
2:35 PM,71.6,28.4,20,30.03,10.0,Calm,Calm,-,N/A,,Clear,0,2012-11-07 21:35:00
2:55 PM,71.6,28.4,20,30.02,10.0,Calm,Calm,-,N/A,,Clear,0,2012-11-07 21:55:00
3:15 PM,73.4,28.4,19,30.02,10.0,Calm,Calm,-,N/A,,Clear,0,2012-11-07 22:15:00
3:35 PM,73.4,28.4,19,30.01,10.0,Calm,Calm,-,N/A,,Clear,0,2012-11-07 22:35:00
3:55 PM,73.4,28.4,19,30.01,10.0,Calm,Calm,-,N/A,,Clear,0,2012-11-07 22:55:00
4:35 PM,75.2,28.4,18,30.00,10.0,Calm,Calm,-,N/A,,Clear,0,2012-11-07 23:35:00
4:55 PM,73.4,28.4,19,30.00,10.0,Calm,Calm,-,N/A,,Clear,0,2012-11-07 23:55:00
5:15 PM,73.4,28.4,19,29.99,10.0,South,3.5,-,N/A,,Clear,170,2012-11-08 00:15:00
5:35 PM,71.6,26.6,19,29.99,10.0,South,4.6,-,N/A,,Clear,170,2012-11-08 00:35:00
5:55 PM,71.6,26.6,19,29.98,10.0,SSE,4.6,-,N/A,,Clear,150,2012-11-08 00:55:00
6:15 PM,68.0,26.6,21,29.98,10.0,Calm,Calm,-,N/A,,Clear,0,2012-11-08 01:15:00
6:35 PM,66.2,26.6,23,29.99,10.0,SSE,4.6,-,N/A,,Clear,150,2012-11-08 01:35:00
6:55 PM,64.4,26.6,24,29.99,10.0,SSW,3.5,-,N/A,,Clear,210,2012-11-08 01:55:00
7:35 PM,64.4,26.6,24,29.98,10.0,SSW,4.6,-,N/A,,Clear,200,2012-11-08 02:35:00
7:55 PM,62.6,26.6,26,29.99,10.0,Calm,Calm,-,N/A,,Clear,0,2012-11-08 02:55:00
8:15 PM,62.6,26.6,26,29.99,10.0,Calm,Calm,-,N/A,,Clear,0,2012-11-08 03:15:00
8:55 PM,59.0,26.6,29,29.99,10.0,ESE,5.8,-,N/A,,Clear,110,2012-11-08 03:55:00
9:15 PM,59.0,26.6,29,29.99,10.0,ESE,5.8,-,N/A,,Clear,120,2012-11-08 04:15:00
9:35 PM,60.8,26.6,27,29.99,10.0,East,3.5,-,N/A,,Clear,90,2012-11-08 04:35:00
9:55 PM,60.8,26.6,27,29.99,10.0,East,4.6,-,N/A,,Clear,100,2012-11-08 04:55:00
10:15 PM,59.0,26.6,29,29.99,10.0,Calm,Calm,-,N/A,,Clear,0,2012-11-08 05:15:00
10:35 PM,57.2,26.6,31,29.99,10.0,Calm,Calm,-,N/A,,Clear,0,2012-11-08 05:35:00
10:55 PM,57.2,26.6,31,29.98,10.0,Calm,Calm,-,N/A,,Clear,0,2012-11-08 05:55:00
11:15 PM,55.4,26.6,33,29.98,10.0,SSW,3.5,-,N/A,,Clear,200,2012-11-08 06:15:00
11:35 PM,57.2,26.6,31,29.98,10.0,SSW,3.5,-,N/A,,Clear,200,2012-11-08 06:35:00
11:55 PM,55.4,26.6,33,29.98,10.0,Calm,Calm,-,N/A,,Clear,0,2012-11-08 06:55:00